• In Uzbekistan
  • List of Countries
  • For 7 days
  • Water Temperature
  • Satellite Maps
  • Weather Map
  • Weather Widgets
  • user-avatar
    Login

    Hourly Weather Plymouth

    Today, 20 June, Wednesday

    Time Temperature Precipitation Wind Pressure Humidity
    00:00 +14°C° 0 mm 4 mps 765 mmHg 98%
    01:00 +14°C° 0 mm 4 mps 765 mmHg 98%
    02:00 +14°C° 0 mm 4 mps 765 mmHg 98%
    03:00 +14°C° 0 mm 4 mps 764 mmHg 98%
    04:00 +15°C° 0 mm 4 mps 764 mmHg 97%
    05:00 +15°C° 0 mm 4 mps 764 mmHg 97%
    06:00 +17°C° 0 mm 4 mps 764 mmHg 96%
    07:00 +17°C° 0 mm 4 mps 764 mmHg 95%
    08:00 +17°C° 0 mm 5 mps 764 mmHg 93%
    09:00 +19°C° 0 mm 5 mps 764 mmHg 92%
    10:00 +19°C° 0 mm 5 mps 764 mmHg 91%
    11:00 +19°C° 0 mm 5 mps 764 mmHg 90%
    12:00 +19°C° 0 mm 5 mps 764 mmHg 90%
    13:00 +19°C° 0 mm 5 mps 764 mmHg 90%
    14:00 +19°C° 0 mm 5 mps 764 mmHg 90%
    15:00 +19°C° 0 mm 5 mps 764 mmHg 91%
    16:00 +17°C° 0 mm 5 mps 764 mmHg 89%
    17:00 +17°C° 0 mm 5 mps 764 mmHg 88%
    18:00 +18°C° 0 mm 4 mps 764 mmHg 87%
    19:00 +16°C° 0 mm 5 mps 765 mmHg 89%
    20:00 +15°C° 0 mm 5 mps 765 mmHg 92%
    21:00 +14°C° 0 mm 5 mps 765 mmHg 95%
    22:00 +13°C° 0 mm 5 mps 765 mmHg 93%
    23:00 +12°C° 0 mm 5 mps 766 mmHg 90%

    Tomorrow, 21 June, Thursday

    Time Temperature Precipitation Wind Pressure Humidity
    00:00 +10°C° 0 mm 5 mps 766 mmHg 87%
    01:00 +10°C° 0 mm 6 mps 766 mmHg 88%
    02:00 +10°C° 0 mm 6 mps 767 mmHg 89%
    03:00 +9°C° 0 mm 6 mps 767 mmHg 90%
    04:00 +10°C° 0 mm 6 mps 767 mmHg 88%
    05:00 +10°C° 0 mm 6 mps 768 mmHg 86%
    06:00 +10°C° 0 mm 6 mps 768 mmHg 84%
    07:00 +11°C° 0 mm 6 mps 768 mmHg 79%
    08:00 +13°C° 0 mm 6 mps 769 mmHg 75%
    09:00 +14°C° 0 mm 6 mps 769 mmHg 70%
    10:00 +14°C° 0 mm 6 mps 770 mmHg 68%
    11:00 +15°C° 0 mm 6 mps 770 mmHg 67%
    12:00 +15°C° 0 mm 6 mps 770 mmHg 65%
    13:00 +16°C° 0 mm 5 mps 770 mmHg 66%
    14:00 +16°C° 0 mm 5 mps 770 mmHg 66%
    15:00 +16°C° 0 mm 5 mps 771 mmHg 66%
    16:00 +16°C° 0 mm 5 mps 771 mmHg 69%
    17:00 +16°C° 0 mm 5 mps 771 mmHg 71%
    18:00 +15°C° 0 mm 5 mps 771 mmHg 74%
    19:00 +14°C° 0 mm 6 mps 771 mmHg 76%
    20:00 +13°C° 0 mm 6 mps 771 mmHg 79%
    21:00 +10°C° 0 mm 6 mps 772 mmHg 82%
    22:00 +10°C° 0 mm 6 mps 772 mmHg 82%
    23:00 +9°C° 0 mm 6 mps 772 mmHg 83%

    Day after tomorrow, 22 June, Friday

    Time Temperature Precipitation Wind Pressure Humidity
    00:00 +9°C° 0 mm 5 mps 772 mmHg 83%
    01:00 +8°C° 0 mm 5 mps 772 mmHg 83%
    02:00 +8°C° 0 mm 5 mps 772 mmHg 83%
    03:00 +7°C° 0 mm 5 mps 772 mmHg 83%
    04:00 +8°C° 0 mm 5 mps 772 mmHg 82%
    05:00 +8°C° 0 mm 5 mps 772 mmHg 80%
    06:00 +9°C° 0 mm 5 mps 772 mmHg 78%
    07:00 +10°C° 0 mm 5 mps 772 mmHg 74%
    08:00 +13°C° 0 mm 5 mps 772 mmHg 70%
    09:00 +14°C° 0 mm 4 mps 772 mmHg 66%
    10:00 +15°C° 0 mm 4 mps 772 mmHg 64%
    11:00 +17°C° 0 mm 3 mps 772 mmHg 62%
    12:00 +18°C° 0 mm 3 mps 772 mmHg 59%
    13:00 +19°C° 0 mm 3 mps 772 mmHg 60%
    14:00 +19°C° 0 mm 3 mps 772 mmHg 61%
    15:00 +19°C° 0 mm 3 mps 772 mmHg 62%
    16:00 +19°C° 0 mm 3 mps 771 mmHg 65%
    17:00 +19°C° 0 mm 3 mps 771 mmHg 69%
    18:00 +18°C° 0 mm 3 mps 771 mmHg 72%
    19:00 +17°C° 0 mm 3 mps 771 mmHg 79%
    20:00 +14°C° 0 mm 3 mps 771 mmHg 85%
    21:00 +13°C° 0 mm 3 mps 771 mmHg 91%
    22:00 +12°C° 0 mm 3 mps 771 mmHg 91%
    23:00 +12°C° 0 mm 3 mps 771 mmHg 91%

    23 June, Saturday

    Time Temperature Precipitation Wind Pressure Humidity
    00:00 +11°C° 0 mm 3 mps 771 mmHg 91%
    01:00 +11°C° 0 mm 3 mps 771 mmHg 89%
    02:00 +11°C° 0 mm 3 mps 771 mmHg 88%
    03:00 +10°C° 0 mm 3 mps 770 mmHg 86%
    04:00 +11°C° 0 mm 3 mps 770 mmHg 84%
    05:00 +12°C° 0 mm 3 mps 770 mmHg 82%
    06:00 +12°C° 0 mm 3 mps 770 mmHg 80%
    07:00 +15°C° 0 mm 2 mps 770 mmHg 76%
    08:00 +16°C° 0 mm 2 mps 770 mmHg 71%
    09:00 +18°C° 0 mm 2 mps 770 mmHg 67%
    10:00 +19°C° 0 mm 2 mps 770 mmHg 65%
    11:00 +20°C° 0 mm 2 mps 770 mmHg 63%
    12:00 +20°C° 0 mm 2 mps 770 mmHg 61%
    13:00 +21°C° 0 mm 2 mps 770 mmHg 62%
    14:00 +21°C° 0 mm 2 mps 770 mmHg 63%
    15:00 +21°C° 0 mm 2 mps 769 mmHg 63%
    16:00 +20°C° 0 mm 2 mps 769 mmHg 67%
    17:00 +20°C° 0 mm 2 mps 769 mmHg 71%
    18:00 +20°C° 0 mm 1 mps 769 mmHg 74%
    19:00 +18°C° 0 mm 1 mps 769 mmHg 78%
    20:00 +16°C° 0 mm 1 mps 769 mmHg 81%
    21:00 +14°C° 0 mm 1 mps 769 mmHg 85%
    22:00 +14°C° 0 mm 1 mps 769 mmHg 85%
    23:00 +14°C° 0 mm 2 mps 768 mmHg 86%

    24 June, Sunday

    Time Temperature Precipitation Wind Pressure Humidity
    00:00 +13°C° 0 mm 2 mps 768 mmHg 86%
    01:00 +13°C° 0 mm 2 mps 768 mmHg 86%
    02:00 +13°C° 0 mm 2 mps 768 mmHg 85%
    03:00 +13°C° 0 mm 2 mps 768 mmHg 85%
    04:00 +12°C° 0 mm 3 mps 768 mmHg 84%
    05:00 +13°C° 0 mm 3 mps 768 mmHg 84%
    06:00 +14°C° 0 mm 3 mps 767 mmHg 84%
    07:00 +16°C° 0 mm 3 mps 768 mmHg 79%
    08:00 +18°C° 0 mm 3 mps 768 mmHg 75%
    09:00 +19°C° 0 mm 3 mps 768 mmHg 71%
    10:00 +20°C° 0 mm 3 mps 768 mmHg 69%
    11:00 +21°C° 0 mm 3 mps 768 mmHg 67%
    12:00 +22°C° 0 mm 3 mps 768 mmHg 65%
    13:00 +22°C° 0 mm 3 mps 768 mmHg 66%
    14:00 +22°C° 0 mm 3 mps 768 mmHg 66%
    15:00 +22°C° 0 mm 3 mps 768 mmHg 67%
    16:00 +21°C° 0 mm 3 mps 767 mmHg 70%
    17:00 +21°C° 0 mm 3 mps 767 mmHg 72%
    18:00 +20°C° 0 mm 3 mps 767 mmHg 75%
    19:00 +18°C° 0 mm 3 mps 767 mmHg 79%
    20:00 +17°C° 0 mm 3 mps 767 mmHg 82%
    21:00 +14°C° 0 mm 3 mps 767 mmHg 85%
    22:00 +13°C° 0 mm 3 mps 767 mmHg 84%
    23:00 +13°C° 0 mm 3 mps 767 mmHg 84%

    25 June, Monday

    Time Temperature Precipitation Wind Pressure Humidity
    00:00 +13°C° 0 mm 3 mps 767 mmHg 83%
    01:00 +12°C° 0 mm 3 mps 767 mmHg 83%
    02:00 +12°C° 0 mm 4 mps 767 mmHg 83%
    03:00 +12°C° 0 mm 4 mps 767 mmHg 83%
    04:00 +12°C° 0 mm 4 mps 767 mmHg 82%
    05:00 +13°C° 0 mm 4 mps 767 mmHg 81%
    06:00 +13°C° 0 mm 4 mps 767 mmHg 80%
    07:00 +15°C° 0 mm 5 mps 767 mmHg 76%
    08:00 +16°C° 0 mm 5 mps 767 mmHg 72%
    09:00 +19°C° 0 mm 6 mps 767 mmHg 68%
    10:00 +20°C° 0 mm 6 mps 767 mmHg 67%
    11:00 +20°C° 0 mm 6 mps 767 mmHg 66%
    12:00 +21°C° 0 mm 6 mps 767 mmHg 64%
    13:00 +21°C° 0 mm 6 mps 767 mmHg 65%
    14:00 +21°C° 0 mm 6 mps 766 mmHg 65%
    15:00 +21°C° 0 mm 6 mps 766 mmHg 66%
    16:00 +21°C° 0 mm 5 mps 766 mmHg 68%
    17:00 +20°C° 0 mm 5 mps 766 mmHg 71%
    18:00 +20°C° 0 mm 5 mps 766 mmHg 74%
    19:00 +17°C° 0 mm 5 mps 766 mmHg 77%
    20:00 +16°C° 0 mm 5 mps 766 mmHg 81%
    21:00 +14°C° 0 mm 5 mps 766 mmHg 85%
    22:00 +14°C° 0 mm 5 mps 766 mmHg 86%
    23:00 +14°C° 0 mm 5 mps 766 mmHg 86%
    Show more